Weather History for Driggs, ID

Change the Weather History Date:

Sunday, April 6, 2014

  Actual Average (KRXE) Record (KRXE)
Temperature  
Mean Temperature 33 °F 42 °F  
Max Temperature 43 °F 53 °F 67 °F (2004)
Min Temperature 23 °F 30 °F 17 °F (2008)
Degree Days  
Heating Degree Days 32 24  
Month to date heating degree days 146  
Since 1 July heating degree days 7075  
Cooling Degree Days 0 0  
Month to date cooling degree days 0  
Year to date cooling degree days 0  
Moisture  
Dew Point 28 °F    
Average Humidity 83    
Maximum Humidity 100    
Minimum Humidity 54    
Precipitation  
Precipitation 0.04 in 0.04 in 0.40 in (1999)
Month to date precipitation 0.26  
Year to date precipitation 2.89  
Sea Level Pressure  
Sea Level Pressure 30.04 in    
Wind  
Wind Speed 7 mph (SE)    
Max Wind Speed 15 mph    
Max Gust Speed 24 mph    
Visibility 6 miles    
Events Fog , Rain , Snow    
T = Trace of Precipitation, MM = Missing Value Source: NWS Daily Summary

Daily Weather History Graph

Daily Weather History Graph

Search for Another Location

Airport:

Trip Planner

Search our weather history database for the weather conditions in past years. The results will help you decide how hot, cold, wet, or windy it might be!

Date:

Astronomy

Apr. 06, 2014 Rise Set
Actual Time 6:56 AM MDT 7:57 PM MDT
Civil Twilight 6:27 AM MDT 8:26 PM MDT
Nautical Twilight 5:52 AM MDT 9:01 PM MDT
Astronomical Twilight 5:16 AM MDT 9:38 PM MDT
Moon 11:55 AM MDT (4/6) 2:02 AM MDT (4/6)
Length of Visible Light 13h 59m
Length of Day
13h 00m
Waxing Crescent, 44% of the Moon is Illuminated
Apr 6
Waxing Crescent
Apr 7
First Quarter
Apr 15
Full
Apr 22
Last Quarter
Apr 29
New

Hourly Weather History & Observations

Time (MDT) Temp. Windchill Dew Point Humidity Pressure Visibility Wind Dir Wind Speed Gust Speed Precip Events Conditions
12:31 AM 30.2 °F 24.3 °F 28.4 °F 93% 30.02 in 4.0 mi South 5.8 mph - 0.00 in Snow Light Snow
12:56 AM 31.1 °F 25.4 °F 29.1 °F 92% 30.00 in 5.0 mi SSE 5.8 mph - 0.00 in Snow Light Snow
1:21 AM 30.2 °F 22.6 °F 28.4 °F 93% 30.04 in 2.0 mi North 8.1 mph - 0.00 in Snow Light Snow
1:23 AM 30.2 °F 24.3 °F 28.4 °F 93% 30.04 in 1.2 mi North 5.8 mph - 0.00 in Snow Light Snow
1:25 AM 30.2 °F 26.7 °F 30.2 °F 100% 30.04 in 0.8 mi North 3.5 mph - 0.00 in Snow Light Snow
1:27 AM 30.2 °F 25.4 °F 30.2 °F 100% 30.04 in 0.5 mi NNW 4.6 mph - 0.00 in Fog , Snow Snow
1:45 AM 30.2 °F 23.4 °F 30.2 °F 100% 30.03 in 1.0 mi SE 6.9 mph - 0.01 in Snow Light Snow
1:49 AM 30.2 °F 23.4 °F 30.2 °F 100% 30.02 in 1.8 mi SE 6.9 mph - 0.02 in Snow Light Snow
1:56 AM 30.0 °F 22.4 °F 30.0 °F 100% 29.99 in 3.0 mi SE 8.1 mph - 0.02 in Snow Light Snow
2:05 AM 26.6 °F 20.0 °F 26.6 °F 100% 30.02 in 6.0 mi SE 5.8 mph - 0.00 in Snow Light Snow
2:56 AM 23.0 °F 18.4 °F 23.0 °F 100% 30.00 in 10.0 mi SE 3.5 mph - 0.00 in   Clear
3:56 AM 23.0 °F 14.7 °F 21.0 °F 92% 30.00 in 10.0 mi SE 6.9 mph - N/A   Clear
4:56 AM 29.1 °F 21.3 °F 26.1 °F 88% 29.98 in 10.0 mi SE 8.1 mph - N/A   Mostly Cloudy
5:56 AM 31.1 °F 24.5 °F 26.1 °F 82% 29.99 in 8.0 mi SSE 6.9 mph - N/A   Mostly Cloudy
6:44 AM 30.2 °F 22.6 °F 26.6 °F 86% 30.04 in 6.0 mi ESE 8.1 mph - 0.00 in   Overcast
6:56 AM 30.0 °F 24.1 °F 28.0 °F 92% 30.02 in 3.0 mi SE 5.8 mph - 0.00 in   Overcast
7:12 AM 30.2 °F 24.3 °F 26.6 °F 86% 30.04 in 9.0 mi SSE 5.8 mph - 0.00 in   Mostly Cloudy
7:56 AM 30.0 °F 23.2 °F 26.1 °F 85% 30.06 in 8.0 mi South 6.9 mph - 0.00 in   Overcast
8:56 AM 31.1 °F 21.9 °F 26.1 °F 82% 30.04 in 9.0 mi South 11.5 mph - N/A   Overcast
9:56 AM 32.0 °F 23.6 °F 27.1 °F 82% 30.04 in 10.0 mi South 10.4 mph - N/A   Overcast
10:56 AM 32.9 °F 23.2 °F 26.1 °F 76% 30.04 in 10.0 mi South 13.8 mph - N/A   Mostly Cloudy
11:56 AM 36.0 °F 27.5 °F 27.1 °F 70% 30.01 in 9.0 mi South 12.7 mph - N/A   Mostly Cloudy
12:56 PM 36.9 °F 30.7 °F 28.0 °F 70% 30.00 in 9.0 mi SE 8.1 mph - 0.00 in Rain Light Rain
1:07 PM 37.4 °F 31.4 °F 28.4 °F 70% 30.04 in 5.0 mi ESE 8.1 mph - 0.00 in Rain Light Rain
1:56 PM 43.0 °F 41.3 °F 27.1 °F 54% 29.98 in 9.0 mi North 3.5 mph - 0.00 in   Scattered Clouds
2:14 PM 37.4 °F 28.5 °F 28.4 °F 70% 30.05 in 3.0 mi West 15.0 mph 24.2 mph 0.00 in Rain Light Rain
2:56 PM 36.0 °F 31.1 °F 30.0 °F 79% 30.04 in 4.0 mi Variable 5.8 mph - 0.00 in Snow Light Snow
3:56 PM 36.9 °F 30.7 °F 30.0 °F 76% 30.05 in 8.0 mi ENE 8.1 mph - 0.00 in   Mostly Cloudy
4:56 PM 38.8 °F 36.5 °F 29.1 °F 68% 30.01 in 8.0 mi ENE 3.5 mph - N/A   Partly Cloudy
5:25 PM 37.4 °F 29.3 °F 28.4 °F 70% 30.06 in 2.5 mi NNW 12.7 mph 21.9 mph 0.00 in Snow Light Snow
5:31 PM 35.6 °F 29.9 °F 30.2 °F 81% 30.06 in 1.2 mi NNW 6.9 mph 21.9 mph 0.00 in Snow Light Snow
5:35 PM 35.6 °F 32.8 °F 30.2 °F 81% 30.05 in 2.0 mi NE 3.5 mph - 0.01 in Snow Light Snow
5:37 PM 35.6 °F - 30.2 °F 81% 30.05 in 3.0 mi Calm Calm - 0.01 in Snow Light Snow
5:56 PM 36.0 °F 29.6 °F 30.0 °F 79% 30.02 in 4.0 mi ESE 8.1 mph - 0.02 in Snow Light Snow
6:56 PM 36.9 °F 33.1 °F 30.0 °F 76% 30.03 in 8.0 mi SSE 4.6 mph - 0.00 in   Mostly Cloudy
7:56 PM 36.0 °F 31.1 °F 30.0 °F 79% 30.06 in 8.0 mi SSW 5.8 mph - N/A   Overcast
8:56 PM 34.9 °F 32.0 °F 29.1 °F 79% 30.09 in 9.0 mi SSE 3.5 mph - N/A   Partly Cloudy
9:56 PM 32.9 °F 27.5 °F 23.0 °F 67% 30.13 in 10.0 mi NW 5.8 mph - N/A   Clear
11:56 PM 27.1 °F 19.7 °F 19.0 °F 72% 30.18 in 10.0 mi SSE 6.9 mph - N/A   Clear